World > North America > United States > Pennsylvania

Hourly Barree, PA Regional Weather

Feedback E-mail the Weather

Quick WX

Barree, PA Weather Maps

°F °C°F °C
Barree Weather Map
UTC Time: 7/2/2022, 17:28
Your Time:

Barree, PA Regional Weather

Expires:202207021800;;560466
ASUS41 KCTP 021710
RWRCTP

REGIONAL WEATHER ROUNDUP
NATIONAL WEATHER SERVICE STATE COLLEGE PA
100 PM EDT SAT JUL 02 2022

Note: "fair" indicates few or no clouds below 12,000 feet with no 
significant weather and/or obstructions to visibility.

* = STATION THAT DOES NOT REPORT PRECIPITATION /E.G. RAIN...SNOW...ETC/
    THUNDER OR FOG.


PAZ004>006-010>012-017>019-024>028-033>037-041-042-045-046-049>053-021800-
CENTRAL PENNSYLVANIA
  
CITY           SKY/WX    TMP DP  RH WIND       PRES   REMARKS
BRADFORD       MOSUNNY   77  57  50 W10       30.01S                  
ST MARYS       CLOUDY    75  61  60 W7G17     30.04                   
DUBOIS         PTSUNNY   78  63  59 W12       30.01S                  
CLEARFIELD     MOSUNNY   80  64  58 SW9       29.99F                  
JOHNSTOWN      PTSUNNY   74  63  68 W9        30.05S                  
SOMERSET       PTSUNNY   75  64  69 W10G18    30.06S                  
ALTOONA        PTSUNNY   81  67  62 W10       30.02R                  
STATE COLLEGE  MOSUNNY   81  68  65 W13       29.98F                  
REEDSVILLE     FAIR      81  77  89 S8        29.97                   
WELLSBORO      FAIR      79  64  61 W10       29.98S                  
WILLIAMSPORT   MOSUNNY   85  64  49 W7        29.92F                  
SELINSGROVE    PTSUNNY   83  70  64 S7        29.95F                  
FT INDIANTOWN  PTSUNNY   81  64  57 NW5       29.95S                  
CAPITAL CITY   MOSUNNY   90  67  46 N7        29.95S                  
HARRISBURG     PTSUNNY   86  65  49 W10       29.94F                  
YORK           MOSUNNY   85  67  54 CALM      29.95F                  
$$


SKY/WX - Weather  TMP - Temperature  DP - Dew Point  RH - Humidity
WIND - Wind Direction/Speed PRES - Barometric Pressure VSB - Visibility
WCI - Wind Chill Index E13G22 Wind - East Wind 13 mph/Gusts of 22 mph

Trending Headlines

Barree Radar Loop



Barree Quick Facts


National Two Day Weather Forecast


E-mail the Barree Weather Forecast

Voice your opinion or tell us about page issues...